STARLINK-2510, 48329

Orbit data source: Space-Track

STARLINK-2510, 48329 is a payload satellite owned by SpaceX/Seattle (US) in LEO that was launched on Thu, 29 Apr 2021 UTC via an FALCON 9 launch vehicle from the Air Force Eastern Test Range (AFETR). Payload-class satellites include a variety of spacecraft equipped with specific instruments for various scientific and technological missions. These include communications satellites like Starlink; space stations such as the ISS; scientific satellites like the Hubble; Earth observation satellites from companies like Planet Labs, Umbra, and HawkEye 360; GPS; miniature CubeSats for education and research; and military/defense satellites.

Loading next visibility...
Identifier
48329, 2021-036BF
Orbit
LEO
Country
Flag of USUS
Related business
Manufacturer
SpaceX/Seattle
Mission
Operational Commercial Communications
Bus & Motor
STARLINK, Unknown motor
Mass
260 kg wet, ~248 kg dry
Launch date (UTC)
2021-04-29 (4 years ago)
Launch vehicle
FALCON 9
Launch site
Air Force Eastern Test Range (AFETR)
Object type
Payload
Rocket body
Debris
Shape & HBR
Box + 1 Pan, 10.1 m
Radar Cross Section
13.562 m², Large (>1 m²)

Expand to show TLE details & history
Last TLE update: 15 hours ago

TLE from 15 hours ago
0 STARLINK-2510
1 48329U 21036BF  25291.23832051  .00002974  00000-0  21855-3 0  9997
2 48329  53.0577  21.1110 0001138 105.1200 254.9915 15.06386501246566
Epoch: 2025-10-18T05:43Z
TLE epoch observation values (Epoch: 2025-10-18T05:43:10.892Z)
Latitude
Longitude
-91.65659°
Altitude
548.337 km
Speed
7.589 km/s
True Right ascension
01h 24m 26s
True Declination
0° 00' 00"
Sunlit
Object was in full shadow at epoch
Visualization orbit readout
Latitude
Unknown
Longitude
Unknown
Altitude
Unknown
Speed
Unknown
Apparent Right ascension
Unknown
Apparent Declination
Unknown
Sunlit
N/A
Visualization observer readout
Local Sidereal Time
15:36:50
Azimuth
Unknown
Elevation
Unknown
Doppler factor
Unknown
Orbital elements
Apogee altitude
548.311 km
Perigee altitude
546.735 km
Semi-major axis
6,925.66 km
Eccentricity
0.00011
Inclination
53.0577°
RAAN
21.111°
Arg. of periapsis
105.12°
True anomaly
254.9789°
Mean anomaly
254.9915°
Eccentric anomaly
254.9852°
Mean motion
3.76575 °/min
Orbital period
95.6 mins
BSTAR
0.00021855
Loading maneuver chart data...
Computing Atmospheric mass density...
Loading historical data...
Loading historical data...
Loading historical data...
Loading historical data...
Loading historical data...
Loading historical data...
Loading historical data...

Documentation

Showing up to 5 results
|